Résultats

P Nom Temps Laps Statuts
1 84 J. Herlings0:01:39.12111Terminé
2 777 E. Bobryshev0:01:40.75510Terminé
3 461 R. Febvre0:01:40.8419Terminé
4 243 T. Gajser0:01:40.95710Terminé
5 222 A. Cairoli0:01:41.20710Terminé
6 89 J. Van Horebeek0:01:41.28010Terminé
7 4 A. Tonus0:01:41.3699Terminé
8 99 M. Anstie0:01:41.75611Terminé
9 911 J. Tixier0:01:42.46011Terminé
10 21 G. Paulin0:01:42.46611Terminé
11 77 A. Lupino0:01:42.51411Terminé
12 17 J.A.Butrón0:01:42.7269Terminé
13 27 A. Jasikonis0:01:42.89512Terminé
14 259 G. Coldenhoff0:01:43.0929Terminé
15 7 T. Leok0:01:43.25710Terminé
16 25 C. Desalle0:01:43.47110Terminé
17 141 M. Desprey0:01:43.75310Terminé
18 909 L. Neurauter0:01:44.23410Terminé
19 999 R. Goncalves0:01:44.39910Terminé
20 12 M. Nagl0:01:44.73311Terminé
21 212 J. Dewulf0:01:45.86710Terminé
22 191 J. Romancik0:01:45.9239Terminé
23 49 J. Irt0:01:45.9959Terminé
24 119 R. Houghton0:01:46.03110Terminé
25 232 M. Michek0:01:46.15910Terminé
26 878 S. Pezzuto0:01:46.1718Terminé
27 71 D. Graulus0:01:46.2199Terminé
28 831 T. Wysocki0:01:46.56211Terminé
29 9 K. De Dycker0:01:46.63010Terminé
30 47 B. Boulard0:01:46.9129Terminé
31 73 P. Irt0:01:47.14410Terminé
32 227 M. Finek0:01:47.18511Terminé
33 311 P. Bartos0:01:47.1929Terminé
34 337 R. Weschta0:01:47.94311Terminé
35 93 J. Bengtsson0:01:48.36011Terminé
36 22 K. Strijbos0:01:54.3675Terminé

Compétitions

Moto XGP

Competition
MXGP of Czech Republic
Type
Free Practice
Circuit
Loket
Départ.
22.07.17 12:00
End Date
22.07.17 12:20
Vainqueur
Jeffrey Herlings